Vorticity
6 5 6 7 9 14 13 8 4 4 2 2 6 5 6 5 7 8 5 2 1 0 4 7 7 6 2 3 4 3 2 -5 -2 5 4 4 5 6 6 5 5 3 5 6 2 6 8 8 7 5 8 7 6 6 5 3 4 8 8 6 6 5 3 2 1 1 2 3 3 3 4 4 4 4 4 4 4 4 4 3 3 3 4 5 7 10 10 9 6 6 7 6 5 4 4 4 5
4 2 5 6 7 9 11 13 11 5 2 5 7 5 5 3 4 6 6 4 1 1 4 6 7 6 6 8 6 3 3 -1 1 6 6 6 5 5 5 4 2 1 1 -1 -1 6 6 3 2 3 6 5 4 4 4 5 6 7 5 2 3 5 2 0 2 3 4 4 4 4 4 4 4 4 4 4 4 5 4 3 3 4 4 4 5 7 10 10 8 7 7 7 6 5 4 4 5
3 1 2 4 6 5 6 13 16 11 7 6 7 8 7 4 4 4 8 9 6 5 5 4 5 7 6 5 3 4 4 1 0 4 7 7 6 4 3 3 3 2 1 -3 -1 7 5 3 5 4 4 6 5 4 6 5 4 3 2 2 3 4 2 2 4 4 5 5 4 4 4 4 4 4 4 4 4 4 3 3 4 5 5 5 4 4 7 10 10 9 8 8 6 5 4 4 4
6 3 1 2 4 3 5 8 9 10 10 7 6 11 10 7 5 3 6 8 7 6 6 4 3 4 4 5 5 5 3 2 0 1 5 6 4 4 4 4 4 4 3 1 3 6 3 7 8 7 7 4 1 1 3 1 2 1 1 3 3 3 2 4 6 5 6 5 5 5 5 5 4 5 4 4 4 4 4 4 5 5 5 5 4 4 5 7 10 10 10 9 8 6 5 4 4
8 7 4 4 3 3 3 1 4 7 9 10 8 9 11 10 7 4 3 6 8 8 8 5 3 3 5 9 8 6 5 4 1 -1 3 5 3 3 5 5 5 4 4 4 6 2 -2 3 2 6 5 -2 3 4 3 4 5 4 4 6 4 3 3 6 7 6 7 5 6 5 5 6 6 6 5 5 4 4 5 5 6 6 6 5 4 4 5 5 6 9 11 10 10 8 6 5 4
9 10 9 6 5 7 5 1 4 6 6 9 9 8 10 11 9 7 4 4 7 9 8 5 7 4 4 9 7 7 8 4 4 2 2 4 3 3 4 5 5 3 4 5 7 5 4 4 2 6 1 -2 6 5 4 7 8 3 5 7 2 3 6 8 7 6 7 6 7 6 6 7 6 6 5 5 4 5 6 6 7 7 6 5 4 4 5 5 4 5 7 10 10 10 8 6 6
7 8 8 6 6 8 7 5 7 7 5 7 9 8 6 7 8 7 5 3 4 8 10 9 10 6 2 5 6 9 9 6 6 5 3 4 4 3 3 4 4 4 4 4 5 5 5 4 4 5 2 3 5 2 3 3 5 1 2 5 1 5 7 6 7 7 7 7 8 7 7 7 6 6 5 6 6 7 7 7 7 5 6 7 7 5 5 6 5 4 3 6 9 11 10 8 7
7 7 6 5 5 7 5 4 7 7 6 6 7 9 8 5 5 4 3 4 4 6 11 12 10 6 4 5 7 10 9 8 8 7 6 5 5 4 3 4 4 4 4 3 4 4 4 4 4 3 3 5 4 3 4 3 5 4 3 6 6 8 8 7 8 7 8 7 7 7 7 6 6 6 6 6 7 7 7 6 5 5 6 8 8 7 7 7 7 6 4 3 5 7 9 11 9
6 7 7 6 5 7 5 4 5 5 6 6 6 9 11 7 5 5 3 5 9 7 6 10 11 8 7 7 7 7 8 8 8 8 7 6 5 5 5 6 5 3 3 3 4 5 4 4 3 3 4 5 4 4 4 6 7 6 6 7 8 8 8 8 7 7 7 7 7 6 6 6 6 6 5 5 5 5 4 3 3 4 5 5 6 6 6 6 7 8 7 7 6 5 5 9 10
5 5 7 8 6 7 6 6 6 4 6 7 6 8 12 13 9 6 4 3 7 9 7 8 10 11 9 7 6 6 7 7 7 7 5 4 4 4 5 6 6 4 5 5 3 4 5 5 5 4 5 4 5 5 6 7 6 7 8 8 8 8 8 7 7 8 6 6 6 6 6 6 6 5 6 6 6 6 5 5 5 5 5 5 4 4 4 3 3 4 5 5 7 7 5 7 8
4 4 6 6 5 6 6 6 7 6 5 6 7 7 10 17 14 7 6 4 4 7 11 9 7 9 7 6 6 6 6 5 6 6 5 4 3 3 3 4 5 5 5 4 3 4 4 4 5 4 4 5 6 6 7 7 7 9 9 8 7 7 7 7 7 6 6 6 5 6 6 6 6 6 7 7 8 8 7 7 7 7 8 9 9 8 5 3 3 2 2 1 3 4 5 5 6
2 4 5 4 6 8 6 6 7 7 5 4 5 8 8 13 17 12 5 5 4 3 8 10 8 9 8 5 5 5 5 5 6 6 6 4 3 3 3 4 4 5 5 2 2 2 2 2 4 5 6 7 7 7 8 8 9 8 8 7 7 7 7 7 6 6 6 5 5 5 5 5 6 6 7 7 8 8 9 9 10 10 10 12 14 15 14 11 9 7 6 5 4 2 4 4 4
3 4 4 5 7 6 5 6 7 5 5 5 2 7 10 9 14 14 8 5 2 1 5 8 9 9 9 7 5 4 4 5 6 8 8 6 5 5 5 6 5 5 4 2 3 1 3 5 7 9 8 8 8 8 8 9 8 7 8 8 8 8 7 7 6 5 5 4 5 5 5 6 7 7 7 7 8 8 8 9 10 10 11 11 11 14 17 17 15 14 11 11 13 8 7 7 4
4 2 3 6 5 3 5 5 7 5 5 7 3 7 12 10 10 13 14 9 5 5 5 6 9 10 7 6 4 3 4 4 5 6 9 8 6 6 5 6 6 5 5 5 5 5 8 9 9 10 9 8 8 8 8 8 8 8 9 9 8 7 6 6 5 4 4 4 5 5 6 6 7 7 7 7 8 7 6 6 7 7 8 9 9 8 9 12 11 13 14 12 16 14 14 15 9
4 4 5 6 3 3 5 5 8 7 5 8 6 7 12 13 9 10 12 11 13 10 3 3 7 10 11 11 7 3 3 4 4 5 7 8 5 5 5 4 5 5 6 6 6 8 10 9 9 9 8 8 8 9 9 8 9 9 9 7 6 6 6 5 4 4 5 5 6 6 6 5 5 6 6 7 7 7 7 6 6 5 6 7 8 7 7 9 7 9 11 9 10 10 13 17 13
4 6 6 5 3 2 5 7 7 5 7 9 5 3 9 13 10 9 11 11 15 8 1 5 6 9 13 14 12 5 4 4 4 5 5 7 6 5 5 5 6 6 6 7 8 8 9 9 9 9 8 8 8 9 9 10 10 9 7 6 6 6 6 6 6 6 5 5 5 5 5 5 4 5 6 7 8 8 7 7 7 7 8 7 7 8 10 12 11 10 10 9 8 7 8 9 8
3 6 5 4 4 3 6 7 6 5 8 10 6 3 4 11 12 9 11 10 12 9 6 9 7 8 9 12 15 8 4 5 5 6 5 7 8 7 8 8 7 7 7 7 8 9 9 9 9 9 9 8 9 9 9 9 8 6 4 4 4 5 5 6 6 6 6 5 5 5 6 7 6 7 8 7 9 9 6 7 10 10 9 9 8 9 11 12 12 12 11 11 11 10 10 8 8
4 4 3 4 3 4 7 5 9 9 6 9 7 3 1 7 13 10 10 10 9 10 9 9 6 7 7 9 16 10 3 5 6 7 8 9 10 9 9 9 8 7 8 8 8 8 8 9 9 9 9 9 9 9 9 7 5 4 2 1 2 3 5 5 6 6 5 5 5 5 6 7 7 7 7 8 10 11 8 6 9 10 9 10 9 8 8 8 9 9 10 10 10 11 11 12 11
4 4 2 4 5 5 8 6 9 8 4 11 7 3 2 5 12 10 9 9 7 8 8 8 5 4 5 7 14 11 4 5 7 7 9 10 10 10 10 9 8 8 8 8 8 9 9 8 9 9 9 8 8 8 8 6 4 3 2 2 2 3 5 6 6 5 5 5 5 6 6 7 7 7 7 8 10 11 9 6 7 8 8 8 7 6 6 6 7 8 8 8 9 10 10 12 12
3 4 3 6 8 5 9 8 7 7 6 11 8 5 4 4 13 13 9 7 7 6 7 9 8 6 5 7 12 10 5 6 7 7 8 9 9 9 10 11 9 9 9 9 10 10 9 9 9 9 9 8 7 7 6 5 4 4 4 4 5 5 6 7 6 6 6 6 6 6 7 7 7 8 7 7 8 9 10 6 5 6 6 5 5 5 5 5 5 5 7 7 7 8 8 10 10
4 1 1 7 9 2 6 8 6 9 9 9 8 7 4 6 14 14 9 6 6 6 5 7 9 9 6 6 10 9 5 6 6 7 8 8 9 8 9 10 9 9 9 9 10 10 9 9 9 9 7 7 6 6 6 5 5 5 6 6 6 7 7 7 6 6 6 6 6 6 7 7 7 7 7 6 6 8 10 8 6 5 4 4 5 4 4 5 5 4 5 5 5 5 5 6 7
6 1 2 6 8 4 6 7 5 9 11 10 7 5 6 8 12 14 10 6 7 8 5 5 6 9 8 6 7 7 6 6 7 8 9 10 12 11 9 9 9 9 9 9 10 9 10 10 9 9 8 8 7 7 6 6 6 6 6 7 7 7 7 7 6 5 5 5 6 7 8 7 7 7 6 5 4 5 6 7 6 5 4 4 4 3 4 4 4 4 4 5 5 5 4 4 4
4 4 7 6 9 8 6 5 4 9 12 12 9 5 7 8 9 11 10 8 11 11 8 5 4 6 8 7 6 6 6 7 8 10 11 12 13 12 9 9 9 9 9 10 10 9 9 9 9 9 9 9 8 8 7 7 6 6 6 6 7 7 7 6 5 5 5 5 7 8 9 8 7 6 5 4 3 3 4 4 4 5 5 4 4 4 4 4 4 4 4 4 5 6 6 5 5
2 6 9 7 8 6 5 5 4 9 11 12 12 8 7 7 7 9 8 7 11 12 10 8 4 4 5 7 7 6 6 7 8 11 12 11 10 10 9 9 9 9 10 9 9 8 7 8 8 8 8 8 7 7 6 5 5 5 6 7 7 7 7 6 6 5 5 7 8 8 8 8 7 5 4 3 2 3 3 4 4 5 4 3 4 4 4 4 4 4 4 4 4 5 5 5 5
5 6 6 6 6 4 5 6 4 8 10 10 12 11 8 6 7 9 9 7 8 11 12 10 5 3 3 5 7 6 6 7 8 11 11 9 8 8 8 8 8 8 8 8 8 7 6 6 6 6 6 5 5 5 4 4 5 6 7 7 7 6 6 7 6 6 6 7 8 6 6 6 4 3 3 3 3 3 3 3 3 4 3 3 4 4 4 4 3 3 4 3 3 4 5 5 5
6 4 2 4 4 4 5 6 5 5 7 8 9 10 9 8 8 9 10 10 10 11 12 12 7 4 4 4 5 6 6 6 7 10 10 9 7 7 8 7 7 7 7 7 7 7 6 6 5 5 5 5 4 4 4 5 6 7 7 7 6 6 6 7 6 6 6 8 8 7 9 9 4 1 3 5 3 2 3 3 3 3 3 3 2 3 4 3 3 3 3 4 3 3 4 5 5
6 5 2 4 4 4 4 6 5 2 5 8 6 8 8 7 8 7 9 11 11 12 12 12 10 6 4 5 5 4 5 6 7 8 9 9 8 7 7 7 7 6 6 6 6 7 6 5 5 4 4 4 5 6 6 7 7 7 6 5 5 6 6 6 6 5 5 6 6 5 8 10 7 4 4 5 3 2 4 4 3 3 3 4 3 2 3 3 4 4 4 4 4 4 4 4 5
3 4 3 4 5 4 5 7 6 3 5 7 6 6 6 6 6 5 8 9 9 12 13 12 11 9 5 5 5 4 5 5 5 6 7 8 9 8 8 8 8 7 6 6 6 6 7 6 5 5 4 5 6 7 7 6 6 5 5 5 5 6 6 8 7 6 6 5 4 4 5 6 7 6 5 5 3 2 5 4 3 4 4 5 4 3 4 4 4 4 4 4 4 4 4 4 5
1 2 3 2 5 4 5 7 6 5 4 5 6 5 4 6 6 5 6 7 6 8 12 13 12 11 8 5 5 5 6 5 5 6 6 7 8 8 7 7 7 7 7 6 6 6 6 6 5 5 6 6 6 6 6 5 5 5 5 5 5 6 6 7 7 6 6 6 6 6 6 5 5 5 5 4 4 3 4 4 4 5 4 4 5 5 5 4 4 4 4 5 5 4 4 4 5
-1 1 2 2 7 7 6 7 7 7 5 4 6 4 3 5 6 5 5 6 6 5 8 11 11 12 12 8 6 5 6 6 6 6 6 6 6 6 6 6 5 5 6 5 5 6 5 5 5 6 6 6 5 4 4 4 5 5 5 5 5 6 6 6 5 5 5 5 6 6 6 5 5 5 5 5 5 5 5 5 5 5 5 5 5 6 5 5 5 5 5 5 5 5 5 5 4
-2 -0 2 2 6 8 7 6 8 8 6 5 5 2 2 5 5 4 4 4 5 5 6 9 11 11 11 12 9 7 5 5 6 6 6 6 5 6 6 5 5 5 5 5 5 6 5 4 4 4 4 4 4 4 4 4 4 5 5 5 5 5 6 6 5 5 5 5 5 5 5 4 5 5 6 6 6 6 6 6 6 6 6 6 6 6 6 6 6 6 6 6 6 6 5 5 5
-0 -0 3 3 4 9 8 5 10 10 6 6 6 4 4 7 6 2 3 3 3 4 5 7 10 10 10 12 12 9 7 5 5 5 5 6 6 6 6 5 5 5 5 5 5 5 5 4 3 3 3 3 4 5 5 4 5 7 7 7 7 7 8 7 6 6 6 6 5 5 6 6 6 7 7 8 7 7 7 7 7 7 6 6 6 6 6 6 7 7 7 6 6 7 6 6 6
2 0 3 6 5 8 8 4 8 12 10 8 7 7 4 6 6 2 3 4 3 3 3 6 8 10 10 10 12 11 8 7 5 5 5 6 6 5 5 5 5 5 5 5 5 5 4 4 3 2 2 3 4 5 6 7 8 10 10 9 9 9 10 9 8 8 8 8 8 8 8 8 8 8 8 8 7 7 7 7 6 6 6 6 6 6 7 6 6 7 7 7 6 6 7 7 7
5 5 7 7 4 8 10 6 4 8 11 8 10 11 5 6 6 2 4 4 3 3 3 4 6 9 11 10 11 11 10 8 6 5 5 6 7 7 6 5 5 5 5 5 5 5 4 4 3 2 2 3 5 6 7 9 10 10 10 10 10 10 10 10 9 9 9 8 8 8 8 8 7 6 6 6 6 6 6 6 6 6 6 6 6 6 7 7 7 7 7 7 6 6 6 6 7
7 11 11 7 5 7 10 8 3 3 7 5 8 12 6 6 6 2 4 4 4 6 4 3 3 6 8 10 11 10 10 9 7 6 5 5 6 8 7 5 4 4 5 5 5 5 5 4 3 3 2 3 6 7 9 10 9 9 9 8 8 8 8 8 7 7 6 6 5 6 5 5 5 5 5 5 6 6 6 6 6 6 5 5 5 5 6 7 7 8 8 8 7 6 6 6 7
8 10 9 8 9 8 9 9 5 0 3 4 5 7 5 4 6 4 3 3 4 6 6 4 3 4 5 7 9 10 11 11 10 8 6 6 6 7 8 7 5 4 5 5 5 5 6 5 4 4 2 4 8 9 9 9 8 7 6 6 6 6 5 4 5 4 4 5 4 4 4 4 4 4 4 4 5 5 5 5 4 3 3 2 3 4 5 6 6 7 8 8 8 7 6 6 6
9 8 4 5 8 7 7 9 8 2 0 2 3 4 5 3 4 6 3 5 5 4 6 5 4 4 4 5 7 8 10 11 11 10 9 9 8 7 7 8 8 5 4 5 6 6 7 7 5 5 3 4 9 9 8 7 6 6 5 5 4 3 4 3 4 4 3 4 3 3 3 3 3 3 3 3 3 3 3 3 3 2 2 2 2 3 4 5 5 6 7 8 8 8 7 6 6
9 12 6 0 3 9 11 8 7 5 1 3 4 3 3 2 2 5 4 5 7 5 4 4 5 5 3 4 5 6 8 9 10 10 10 9 9 9 8 8 8 7 6 5 5 6 7 8 7 6 4 6 10 8 7 6 4 4 4 3 3 3 3 3 3 3 3 3 3 3 3 3 3 3 3 3 3 3 3 3 3 3 3 3 3 3 4 5 6 6 7 9 9 8 8 7 6
7 14 8 -3 -0 13 19 14 5 3 3 4 5 2 1 2 0 1 2 4 7 6 3 2 4 5 5 5 4 5 5 6 8 9 9 9 9 9 8 8 6 5 6 5 5 6 7 8 7 6 6 7 9 8 6 5 3 3 3 2 3 3 3 3 4 4 3 3 3 3 3 4 4 4 4 5 4 4 3 3 3 3 3 4 4 4 5 6 7 8 8 9 9 8 8 8 7
6 11 12 -1 -3 9 15 16 9 2 4 3 4 2 -0 2 1 1 2 3 5 6 4 3 3 5 6 6 6 5 3 3 5 6 8 9 9 9 8 8 8 6 6 6 6 8 10 10 8 7 8 9 9 8 5 3 3 2 2 3 3 3 3 3 3 3 2 3 3 3 3 2 2 4 6 7 7 6 5 5 4 4 4 4 5 6 7 8 8 9 10 10 9 9 8 8 8
7 10 15 -4 -5 9 9 12 11 2 1 1 2 3 1 2 3 3 3 3 4 6 6 4 4 5 5 5 5 3 3 4 5 4 4 7 7 9 9 8 9 8 7 8 8 10 11 11 10 8 8 8 8 7 4 3 3 2 2 3 3 3 3 2 2 2 2 2 3 3 2 2 1 2 5 8 10 8 8 7 7 7 5 5 6 7 9 10 9 10 11 10 9 9 9 8 8
7 12 14 -5 -3 9 4 8 10 3 0 -0 0 2 5 6 1 1 3 3 4 4 5 6 4 5 5 2 1 3 5 5 6 8 5 5 5 5 8 8 8 8 7 8 8 8 9 8 10 9 8 8 7 5 3 2 3 2 3 3 3 3 2 2 2 1 2 2 3 3 2 2 2 3 5 8 10 10 10 10 9 8 7 7 8 9 11 11 8 9 10 9 8 9 9 9 7
9 14 13 4 3 3 3 6 7 6 3 1 3 -1 1 6 2 2 3 1 1 1 1 5 5 6 6 3 2 4 6 4 4 8 7 8 8 5 6 6 5 7 6 6 6 5 6 5 6 7 6 5 5 4 3 2 2 2 2 2 2 2 2 2 2 1 2 3 4 5 5 5 5 6 7 8 10 10 9 9 9 8 9 9 9 9 11 11 8 8 9 8 9 9 9 8 7
6 10 12 11 6 1 1 1 4 8 3 2 7 -1 -5 4 4 3 6 1 3 6 3 4 7 8 8 6 6 5 5 6 5 5 6 7 9 7 6 5 4 7 6 6 6 4 4 5 4 4 4 3 3 3 3 2 3 2 2 3 2 2 2 2 3 4 5 7 9 9 9 9 9 9 8 8 9 8 8 8 8 9 10 10 9 9 12 11 8 8 9 8 9 9 9 8 7
1 8 14 12 7 3 -0 -0 4 3 2 7 8 2 -2 1 3 3 7 4 5 11 7 7 9 8 10 9 9 9 6 6 6 6 7 5 7 8 7 7 5 5 5 5 6 6 5 6 5 4 3 3 3 3 3 3 3 3 3 3 3 3 3 3 5 7 9 10 11 10 11 11 12 11 8 7 8 7 7 7 8 9 9 8 8 10 12 11 8 8 9 9 9 9 8 7 7
2 7 16 16 7 2 -0 6 2 -9 6 11 -1 7 8 -1 -1 -1 3 4 5 10 5 5 9 4 7 8 6 9 8 8 8 7 8 6 6 7 5 7 7 4 4 4 5 6 6 6 5 4 3 3 3 2 3 3 3 4 4 4 4 4 5 5 7 9 10 10 8 9 11 13 13 10 7 6 6 6 6 6 7 8 8 8 8 11 13 11 8 8 9 9 9 8 8 7 7
0 -0 7 10 8 4 -0 8 -1 -18 12 20 -10 2 13 2 1 -4 2 10 2 1 1 2 6 1 4 7 4 6 7 9 11 9 10 8 7 7 6 7 7 5 5 5 5 4 4 5 5 5 5 5 5 5 6 6 7 7 6 6 6 6 6 7 9 9 8 7 7 9 11 13 11 6 5 6 6 5 6 7 7 8 9 8 9 12 13 10 8 8 9 9 9 8 8 8 8
-3 -5 -7 -6 5 10 3 8 -1 -25 2 22 -3 -3 4 2 8 -0 -1 9 1 2 11 9 5 3 7 5 -0 1 2 3 7 9 10 10 9 9 10 10 8 8 7 6 5 3 4 6 6 8 9 8 9 8 8 8 7 7 6 7 7 7 8 8 9 8 7 7 8 9 10 11 8 5 5 6 5 4 6 8 9 9 9 8 9 12 11 9 6 7 8 9 8 8 8 8 7
-5 -3 -4 -7 -1 7 5 10 7 -17 -13 4 -4 -0 2 -4 9 9 -4 2 8 9 11 6 1 4 5 0 -1 1 2 2 2 3 6 8 10 10 10 12 11 11 10 8 8 7 7 8 9 9 9 8 6 5 5 5 5 7 8 9 8 7 8 8 7 7 7 8 9 9 9 8 8 6 6 4 3 4 5 8 10 10 9 8 9 11 11 9 6 7 9 7 7 7 7 7 6
1 4 5 4 1 5 6 8 11 -2 -5 1 -9 -7 -0 -5 6 14 3 4 15 13 6 2 2 8 7 1 1 4 8 10 4 3 5 6 10 12 11 12 12 11 11 10 11 10 10 10 10 9 7 5 2 2 4 6 7 9 11 12 9 7 7 6 6 7 7 8 9 10 9 9 8 7 5 4 4 5 6 8 10 10 9 8 9 10 12 11 9 9 9 6 5 6 7 7 7
4 2 1 4 4 4 5 10 12 6 5 9 2 -4 -4 0 6 11 14 16 10 7 8 5 0 8 10 1 -1 10 20 19 8 4 7 5 5 7 11 15 14 12 10 10 11 10 9 9 8 6 4 3 2 4 8 8 8 10 12 11 8 6 5 4 6 8 7 7 8 8 8 8 8 7 7 6 6 6 6 8 11 10 8 9 9 9 12 12 8 9 9 6 5 6 7 8 7
3 1 -2 0 4 0 -2 3 8 16 22 10 4 8 1 1 4 -0 9 18 8 3 7 5 2 8 8 -2 -2 8 12 10 8 7 6 4 2 3 8 13 15 14 12 11 11 10 10 10 8 8 7 7 8 10 10 9 9 10 9 8 7 6 4 4 8 9 7 7 7 6 6 6 6 6 5 5 6 6 6 8 10 9 8 9 9 9 11 11 8 7 8 7 6 6 8 8 7
5 2 -0 -2 -0 0 2 5 -5 0 23 12 1 14 6 -4 3 1 3 8 3 2 2 -2 3 11 7 -1 -2 -1 -3 2 11 10 4 3 5 6 7 8 10 12 11 10 11 10 10 10 11 11 11 12 12 10 9 8 7 8 7 7 6 5 5 6 7 6 5 6 7 8 7 6 5 5 4 6 7 7 6 7 8 8 8 8 9 10 10 11 8 5 7 9 7 6 8 8 6
8 2 1 -2 -3 -4 -2 13 9 -3 9 7 -3 15 19 6 7 13 13 11 6 4 1 -2 3 11 12 8 4 -1 -1 8 10 4 3 3 5 9 10 9 9 8 6 8 9 9 10 11 11 11 11 12 11 9 9 10 10 10 9 8 7 7 7 8 7 6 5 5 6 7 7 6 6 5 6 7 7 6 6 7 6 6 7 8 9 10 11 12 8 5 8 10 7 6 7 7 6
12 4 3 2 0 -3 -19 -17 -2 3 16 14 -9 -2 19 16 9 12 13 13 14 10 6 5 4 7 12 15 13 7 5 11 9 4 5 2 1 7 11 10 8 5 6 7 7 9 12 12 12 11 11 10 10 10 10 11 12 11 11 10 10 8 7 6 5 4 5 5 7 7 8 8 7 7 7 7 7 8 8 7 6 4 5 7 8 9 11 13 9 6 8 9 6 5 6 6 6
13 6 6 3 -1 4 -2 -10 -11 -16 2 26 13 -4 5 10 7 10 12 9 9 7 4 5 4 3 2 5 13 16 11 9 4 2 7 6 2 4 8 9 6 2 3 4 6 11 14 13 12 11 10 8 8 9 9 10 10 10 10 9 6 6 5 5 6 5 6 6 8 7 5 6 7 7 6 6 9 11 8 5 4 4 4 4 6 8 9 11 10 6 7 8 6 5 5 6 6
11 8 7 5 -0 -1 -2 7 12 -10 -20 8 24 8 1 11 14 13 16 10 0 -1 -2 -3 1 4 -0 -1 12 22 17 8 1 -3 0 4 4 4 5 7 5 2 1 2 4 8 12 15 13 11 11 9 7 7 7 9 9 7 7 5 4 5 3 3 4 2 2 4 7 5 2 4 7 7 6 4 3 7 10 8 4 3 4 2 4 6 6 7 8 5 6 8 7 5 5 5 5
12 11 10 4 3 5 -6 -10 4 6 -13 -17 4 10 -5 -2 12 14 13 6 -2 1 2 -4 -0 4 2 5 19 25 15 8 12 9 2 3 7 7 3 1 3 3 2 2 3 5 11 15 12 12 13 10 8 9 9 9 8 6 5 3 4 6 8 13 7 -4 -4 4 9 6 2 4 5 4 7 6 2 4 8 8 6 3 2 1 4 6 6 5 4 3 5 7 6 4 4 4 5
Height
5909 5909 5909 5909 5910 5911 5911 5910 5911 5911 5911 5911 5912 5912 5912 5912 5912 5912 5911 5911 5910 5910 5910 5910 5910 5910 5909 5908 5907 5907 5907 5908 5909 5910 5911 5910 5910 5911 5911 5911 5910 5910 5910 5911 5912 5913 5913 5914 5915 5916 5917 5917 5916 5916 5916 5916 5917 5917 5918 5918 5918 5919 5920 5920 5919 5919 5920 5920 5921 5921 5922 5922 5922 5922 5923 5922 5922 5922 5922 5921 5920 5919 5919 5919 5919 5919 5919 5919 5919 5919 5920 5920 5920 5920 5920 5920 5920
5911 5910 5910 5910 5911 5911 5911 5912 5912 5912 5912 5912 5912 5912 5912 5912 5912 5912 5912 5911 5911 5911 5911 5911 5911 5911 5911 5910 5909 5909 5908 5909 5910 5911 5912 5912 5911 5912 5912 5912 5912 5912 5913 5912 5913 5914 5915 5916 5916 5917 5917 5917 5917 5917 5917 5917 5918 5917 5918 5918 5918 5919 5920 5920 5921 5921 5921 5921 5922 5922 5923 5923 5923 5923 5923 5923 5923 5923 5922 5921 5921 5920 5920 5921 5920 5920 5920 5920 5920 5920 5920 5920 5920 5921 5921 5921 5921
5912 5912 5911 5911 5912 5912 5912 5913 5913 5913 5913 5913 5913 5913 5913 5912 5912 5912 5912 5912 5912 5911 5911 5912 5912 5912 5912 5912 5911 5911 5910 5910 5910 5911 5913 5913 5913 5912 5913 5913 5913 5914 5915 5914 5914 5915 5916 5917 5917 5917 5917 5917 5918 5918 5918 5919 5919 5918 5918 5919 5919 5920 5922 5922 5922 5922 5922 5922 5923 5923 5923 5923 5924 5924 5924 5924 5924 5923 5923 5922 5922 5922 5922 5922 5921 5921 5921 5921 5922 5922 5921 5921 5921 5921 5921 5922 5922
5913 5913 5913 5912 5912 5913 5914 5914 5914 5914 5914 5914 5914 5914 5913 5913 5913 5912 5912 5912 5912 5912 5912 5912 5912 5912 5913 5913 5913 5912 5912 5912 5911 5912 5914 5914 5914 5913 5914 5914 5915 5915 5916 5916 5916 5916 5916 5917 5917 5918 5918 5918 5919 5919 5919 5920 5920 5920 5920 5921 5922 5923 5924 5923 5923 5924 5923 5923 5923 5924 5924 5924 5924 5924 5924 5924 5924 5924 5923 5923 5923 5923 5923 5922 5922 5922 5922 5923 5923 5923 5923 5923 5922 5922 5922 5922 5922
5914 5914 5914 5913 5913 5914 5915 5915 5915 5916 5915 5915 5914 5914 5914 5913 5913 5913 5912 5912 5913 5913 5913 5913 5913 5913 5913 5914 5914 5914 5913 5913 5913 5913 5914 5915 5914 5914 5915 5915 5916 5916 5917 5917 5918 5918 5918 5917 5918 5918 5919 5919 5920 5919 5920 5921 5921 5922 5922 5923 5923 5924 5924 5924 5924 5924 5924 5924 5924 5924 5924 5924 5925 5925 5925 5925 5925 5924 5924 5924 5924 5924 5923 5923 5922 5922 5923 5923 5924 5924 5924 5924 5923 5923 5922 5922 5923
5915 5915 5915 5914 5914 5915 5915 5916 5917 5917 5916 5916 5915 5915 5914 5914 5914 5914 5913 5913 5913 5913 5913 5914 5914 5913 5914 5914 5915 5915 5914 5914 5914 5914 5915 5915 5915 5915 5916 5917 5917 5917 5918 5918 5919 5920 5919 5919 5920 5920 5920 5921 5921 5921 5921 5922 5923 5923 5923 5923 5924 5924 5924 5924 5924 5925 5924 5924 5924 5924 5924 5925 5925 5925 5925 5925 5925 5925 5925 5925 5925 5924 5923 5923 5923 5923 5923 5924 5924 5925 5924 5924 5924 5923 5923 5923 5923
5915 5915 5915 5915 5915 5916 5916 5917 5917 5917 5917 5917 5916 5916 5915 5915 5915 5915 5914 5914 5913 5913 5914 5914 5915 5914 5914 5915 5915 5915 5915 5915 5915 5915 5915 5916 5916 5917 5917 5918 5919 5919 5919 5919 5920 5921 5921 5921 5922 5922 5923 5923 5923 5923 5923 5924 5924 5924 5924 5924 5925 5924 5924 5924 5925 5925 5925 5925 5925 5925 5925 5925 5925 5925 5925 5925 5925 5926 5926 5925 5925 5924 5923 5923 5923 5923 5923 5924 5925 5925 5924 5924 5924 5924 5923 5923 5924
5916 5916 5916 5916 5917 5917 5917 5917 5917 5917 5917 5917 5916 5916 5916 5915 5915 5915 5915 5914 5914 5913 5914 5915 5915 5915 5914 5915 5915 5916 5916 5916 5916 5916 5917 5917 5918 5918 5919 5919 5920 5920 5920 5921 5921 5922 5922 5923 5923 5924 5924 5924 5924 5925 5925 5925 5926 5926 5925 5925 5926 5925 5925 5925 5925 5925 5925 5925 5925 5925 5925 5925 5925 5925 5925 5926 5926 5926 5926 5925 5925 5924 5924 5924 5924 5924 5924 5925 5925 5925 5924 5924 5924 5924 5924 5923 5923
5917 5917 5916 5917 5918 5918 5918 5918 5918 5917 5917 5917 5917 5916 5916 5916 5916 5916 5915 5915 5914 5914 5914 5915 5915 5915 5915 5915 5915 5916 5917 5917 5918 5918 5918 5918 5919 5920 5920 5921 5921 5921 5922 5922 5922 5923 5923 5924 5924 5925 5925 5925 5925 5925 5926 5926 5926 5926 5926 5926 5926 5926 5926 5926 5925 5925 5925 5925 5925 5925 5926 5926 5926 5926 5926 5927 5927 5927 5926 5926 5925 5925 5925 5925 5925 5924 5925 5925 5926 5926 5925 5924 5924 5924 5924 5924 5923
5917 5917 5917 5918 5918 5919 5919 5919 5918 5918 5918 5918 5917 5917 5916 5916 5916 5916 5916 5915 5915 5914 5914 5915 5916 5916 5916 5916 5916 5917 5917 5918 5918 5919 5919 5919 5920 5921 5921 5922 5923 5923 5923 5923 5923 5924 5924 5925 5925 5925 5926 5926 5926 5926 5926 5926 5926 5927 5927 5927 5927 5927 5926 5926 5926 5926 5926 5926 5926 5926 5926 5926 5926 5927 5927 5928 5928 5927 5927 5926 5926 5926 5925 5925 5925 5925 5925 5926 5926 5926 5926 5925 5924 5924 5924 5924 5924
5918 5918 5918 5919 5919 5920 5920 5919 5919 5919 5919 5919 5918 5918 5917 5916 5916 5916 5916 5916 5915 5915 5915 5916 5916 5917 5916 5916 5917 5917 5918 5918 5919 5920 5920 5920 5921 5921 5922 5923 5923 5924 5924 5924 5924 5925 5925 5926 5926 5926 5926 5926 5926 5926 5927 5927 5927 5927 5928 5927 5927 5927 5926 5926 5926 5926 5926 5926 5927 5927 5926 5926 5927 5928 5929 5929 5929 5928 5927 5926 5926 5926 5926 5926 5926 5926 5926 5926 5926 5925 5925 5925 5924 5924 5923 5923 5923
5918 5918 5919 5920 5920 5920 5920 5920 5920 5920 5919 5919 5919 5918 5918 5917 5917 5916 5916 5916 5915 5915 5915 5916 5917 5917 5917 5917 5917 5917 5918 5919 5920 5920 5921 5921 5922 5922 5922 5923 5923 5924 5924 5925 5925 5926 5926 5927 5927 5927 5927 5927 5927 5927 5927 5927 5928 5928 5928 5927 5927 5927 5927 5927 5927 5927 5927 5927 5927 5927 5927 5927 5928 5929 5929 5929 5929 5928 5927 5927 5927 5927 5926 5926 5926 5926 5926 5925 5925 5925 5924 5924 5924 5924 5923 5923 5923
5919 5919 5919 5920 5921 5921 5921 5921 5920 5920 5920 5919 5919 5919 5918 5918 5917 5917 5916 5916 5916 5916 5916 5916 5917 5918 5918 5917 5917 5918 5918 5919 5920 5921 5922 5922 5923 5923 5923 5923 5923 5924 5924 5925 5926 5926 5927 5927 5927 5927 5927 5927 5928 5928 5928 5928 5928 5928 5928 5928 5928 5928 5928 5928 5928 5928 5928 5928 5927 5927 5927 5928 5929 5930 5930 5930 5930 5929 5928 5928 5928 5927 5927 5926 5926 5926 5926 5925 5925 5924 5923 5923 5923 5923 5923 5922 5922
5919 5920 5920 5921 5922 5922 5921 5921 5921 5921 5920 5920 5919 5919 5919 5919 5918 5917 5917 5916 5916 5916 5916 5916 5917 5918 5918 5918 5918 5918 5918 5919 5920 5921 5922 5923 5923 5923 5924 5924 5924 5924 5924 5925 5926 5926 5927 5927 5927 5927 5927 5927 5927 5928 5928 5928 5928 5928 5928 5928 5928 5928 5928 5928 5928 5928 5928 5928 5928 5928 5928 5929 5929 5930 5930 5931 5930 5929 5928 5928 5928 5928 5927 5926 5926 5926 5926 5925 5925 5924 5923 5923 5922 5922 5922 5922 5922
5920 5920 5920 5921 5922 5922 5922 5922 5922 5921 5921 5921 5920 5919 5919 5919 5919 5918 5917 5917 5916 5915 5915 5916 5917 5918 5919 5919 5918 5918 5918 5919 5920 5921 5922 5923 5923 5923 5924 5924 5924 5924 5924 5925 5925 5926 5927 5927 5927 5927 5927 5927 5927 5928 5928 5928 5929 5929 5929 5929 5929 5929 5929 5929 5929 5929 5929 5929 5929 5929 5929 5929 5930 5930 5931 5931 5931 5930 5929 5928 5928 5928 5927 5926 5926 5926 5926 5925 5925 5924 5923 5922 5922 5922 5922 5921 5921
5921 5921 5921 5922 5922 5923 5923 5922 5922 5922 5921 5921 5920 5919 5920 5920 5919 5919 5918 5917 5916 5915 5915 5916 5916 5918 5919 5919 5919 5918 5918 5919 5920 5920 5921 5922 5923 5923 5923 5923 5924 5924 5924 5925 5925 5926 5926 5927 5927 5927 5927 5927 5928 5928 5928 5929 5929 5929 5930 5930 5930 5930 5930 5930 5930 5930 5930 5930 5930 5930 5930 5929 5930 5930 5931 5931 5932 5930 5929 5929 5929 5928 5927 5926 5926 5926 5926 5925 5925 5924 5923 5922 5922 5922 5921 5921 5921
5921 5921 5922 5923 5923 5923 5923 5923 5923 5922 5921 5921 5920 5919 5920 5920 5920 5919 5919 5918 5917 5916 5916 5916 5916 5918 5918 5919 5919 5918 5918 5919 5919 5920 5921 5922 5922 5922 5923 5923 5923 5924 5924 5924 5925 5925 5926 5926 5927 5927 5927 5927 5928 5928 5928 5929 5929 5930 5930 5930 5930 5930 5930 5930 5931 5931 5931 5931 5930 5930 5930 5930 5930 5930 5930 5932 5932 5931 5929 5929 5929 5928 5927 5927 5926 5926 5926 5925 5925 5924 5923 5922 5922 5921 5921 5921 5920
5922 5922 5922 5923 5923 5923 5923 5923 5923 5922 5921 5921 5920 5920 5920 5920 5920 5920 5920 5919 5918 5917 5916 5916 5916 5917 5918 5918 5920 5919 5918 5919 5920 5920 5921 5921 5922 5922 5922 5923 5923 5923 5924 5924 5925 5925 5926 5926 5927 5927 5927 5927 5928 5928 5929 5929 5930 5930 5930 5931 5931 5931 5931 5932 5932 5932 5931 5931 5931 5931 5930 5930 5930 5930 5930 5932 5933 5932 5929 5929 5929 5929 5928 5927 5927 5927 5926 5926 5926 5925 5924 5923 5922 5922 5921 5921 5920
5922 5922 5923 5923 5923 5923 5923 5923 5922 5922 5922 5921 5921 5920 5919 5920 5920 5920 5920 5919 5919 5918 5917 5917 5917 5917 5918 5918 5920 5919 5918 5919 5920 5920 5921 5921 5922 5922 5922 5923 5923 5923 5924 5924 5925 5925 5926 5926 5927 5927 5928 5928 5928 5929 5929 5930 5930 5931 5932 5932 5932 5932 5933 5933 5933 5932 5932 5932 5932 5931 5931 5930 5930 5930 5930 5931 5933 5933 5931 5929 5930 5930 5929 5929 5928 5928 5928 5927 5927 5926 5925 5924 5923 5922 5922 5921 5921
5922 5922 5923 5923 5923 5923 5923 5923 5922 5922 5922 5921 5921 5920 5919 5919 5920 5920 5920 5919 5919 5919 5918 5918 5917 5917 5917 5918 5920 5919 5919 5919 5920 5920 5921 5921 5922 5922 5922 5923 5923 5923 5924 5924 5925 5926 5926 5926 5927 5928 5928 5929 5929 5930 5930 5931 5931 5932 5933 5933 5933 5934 5934 5934 5933 5933 5933 5933 5932 5932 5931 5931 5931 5930 5930 5931 5933 5934 5933 5931 5931 5931 5931 5931 5930 5929 5929 5928 5927 5927 5926 5925 5924 5923 5923 5922 5921
5922 5922 5923 5923 5923 5923 5923 5923 5922 5923 5922 5921 5921 5920 5919 5919 5919 5920 5920 5919 5919 5919 5918 5918 5918 5918 5918 5918 5919 5919 5919 5919 5920 5920 5921 5921 5922 5922 5922 5923 5923 5924 5924 5925 5925 5926 5926 5927 5928 5928 5929 5929 5930 5931 5931 5932 5932 5933 5934 5934 5934 5934 5934 5934 5934 5934 5934 5933 5933 5932 5932 5932 5931 5931 5931 5931 5932 5934 5934 5933 5931 5931 5931 5931 5931 5930 5929 5929 5928 5928 5927 5926 5925 5925 5924 5923 5922
5922 5923 5923 5923 5923 5923 5923 5923 5922 5922 5922 5922 5921 5921 5920 5919 5919 5920 5920 5919 5919 5919 5919 5918 5918 5918 5918 5918 5919 5919 5919 5920 5920 5921 5921 5922 5922 5922 5922 5923 5924 5924 5925 5925 5926 5927 5927 5928 5928 5929 5929 5930 5931 5931 5932 5933 5933 5934 5935 5935 5935 5935 5935 5935 5934 5934 5934 5934 5933 5933 5933 5932 5932 5932 5931 5932 5932 5933 5933 5933 5932 5931 5931 5931 5931 5930 5930 5929 5929 5928 5928 5927 5926 5925 5925 5924 5923
5922 5922 5922 5923 5923 5923 5923 5923 5922 5922 5922 5922 5921 5921 5920 5919 5919 5919 5919 5919 5919 5920 5919 5919 5918 5919 5919 5919 5919 5919 5920 5920 5921 5921 5921 5922 5922 5923 5923 5923 5924 5925 5925 5926 5926 5927 5928 5928 5929 5930 5930 5931 5931 5932 5933 5933 5934 5935 5935 5935 5935 5935 5935 5935 5935 5934 5934 5934 5934 5934 5934 5933 5933 5933 5932 5932 5932 5933 5933 5933 5933 5933 5932 5931 5931 5930 5930 5930 5929 5929 5928 5927 5927 5926 5925 5924 5923
5922 5922 5922 5922 5922 5922 5922 5922 5922 5922 5922 5922 5921 5921 5920 5919 5919 5919 5919 5920 5919 5920 5920 5919 5919 5919 5919 5919 5920 5920 5920 5920 5921 5921 5922 5922 5923 5923 5923 5924 5924 5925 5926 5927 5927 5928 5928 5929 5930 5930 5931 5932 5932 5933 5933 5934 5935 5935 5935 5935 5936 5935 5935 5935 5935 5935 5935 5935 5934 5934 5934 5934 5934 5933 5933 5933 5933 5933 5933 5933 5933 5933 5933 5932 5931 5931 5931 5930 5930 5929 5928 5928 5927 5926 5925 5924 5923
5921 5922 5922 5922 5922 5922 5922 5922 5922 5922 5922 5922 5921 5921 5920 5920 5919 5919 5919 5920 5919 5920 5920 5920 5919 5919 5919 5920 5920 5920 5920 5920 5921 5921 5922 5923 5923 5924 5924 5925 5925 5926 5927 5928 5928 5929 5929 5930 5931 5931 5932 5932 5933 5934 5934 5935 5935 5935 5936 5936 5936 5936 5936 5936 5936 5935 5935 5935 5935 5935 5934 5934 5934 5934 5934 5934 5934 5934 5934 5934 5934 5933 5933 5932 5932 5931 5931 5931 5930 5929 5929 5928 5927 5927 5926 5925 5923
5921 5921 5921 5922 5922 5922 5922 5922 5922 5922 5922 5922 5922 5921 5921 5920 5920 5919 5920 5920 5919 5920 5920 5920 5920 5920 5920 5920 5920 5921 5921 5921 5921 5922 5922 5923 5924 5924 5925 5926 5926 5927 5928 5928 5929 5930 5930 5931 5931 5932 5932 5933 5934 5934 5934 5935 5935 5936 5936 5936 5936 5936 5936 5936 5936 5936 5936 5936 5935 5935 5935 5935 5935 5935 5934 5934 5934 5934 5934 5934 5933 5933 5933 5932 5932 5931 5931 5930 5930 5929 5929 5928 5927 5926 5926 5925 5924
5920 5920 5921 5921 5921 5921 5922 5922 5922 5922 5922 5922 5922 5921 5921 5920 5920 5920 5920 5919 5919 5920 5920 5920 5921 5920 5920 5920 5921 5921 5921 5922 5922 5922 5923 5923 5924 5925 5925 5926 5927 5928 5928 5929 5930 5930 5931 5931 5932 5932 5933 5933 5934 5934 5935 5935 5936 5936 5936 5936 5936 5937 5937 5937 5937 5936 5936 5936 5936 5936 5936 5935 5935 5935 5935 5935 5934 5934 5934 5933 5933 5933 5932 5932 5931 5931 5930 5930 5929 5929 5928 5927 5927 5926 5925 5925 5924
5919 5920 5920 5920 5921 5921 5922 5922 5922 5922 5922 5922 5922 5922 5921 5920 5920 5920 5920 5919 5920 5920 5921 5921 5921 5921 5921 5921 5921 5922 5922 5922 5923 5923 5924 5924 5925 5926 5926 5927 5928 5928 5929 5930 5930 5931 5931 5932 5932 5933 5933 5934 5934 5935 5935 5936 5936 5936 5936 5937 5937 5937 5937 5937 5937 5937 5937 5937 5936 5936 5936 5936 5936 5936 5935 5935 5934 5934 5934 5933 5933 5932 5932 5932 5931 5931 5930 5929 5929 5928 5927 5927 5926 5926 5925 5924 5923
5918 5919 5920 5920 5920 5921 5921 5922 5922 5922 5922 5922 5922 5922 5921 5921 5920 5920 5919 5919 5920 5920 5921 5921 5921 5921 5922 5922 5922 5923 5923 5923 5924 5924 5925 5925 5926 5926 5927 5928 5928 5929 5930 5930 5931 5931 5932 5932 5933 5933 5934 5934 5935 5935 5935 5936 5936 5937 5937 5937 5937 5937 5937 5937 5937 5937 5937 5937 5937 5937 5937 5937 5936 5936 5936 5935 5935 5934 5934 5933 5933 5932 5932 5932 5931 5931 5930 5929 5928 5927 5927 5926 5926 5925 5924 5923 5922
5917 5918 5919 5919 5919 5920 5921 5921 5921 5921 5921 5921 5921 5921 5921 5921 5921 5920 5920 5920 5920 5920 5921 5921 5921 5921 5922 5922 5922 5923 5924 5924 5925 5925 5925 5926 5927 5927 5928 5928 5929 5930 5930 5931 5931 5932 5932 5933 5933 5934 5934 5935 5935 5936 5936 5936 5937 5937 5937 5937 5937 5938 5938 5938 5938 5938 5938 5938 5938 5938 5937 5937 5936 5936 5936 5935 5935 5934 5934 5933 5933 5932 5932 5931 5931 5930 5930 5929 5928 5927 5927 5926 5925 5924 5924 5923 5922
5916 5917 5918 5918 5919 5919 5920 5920 5921 5921 5921 5921 5921 5921 5921 5921 5921 5920 5920 5920 5920 5921 5921 5921 5922 5922 5922 5922 5923 5923 5924 5925 5925 5926 5926 5927 5927 5928 5928 5929 5929 5930 5931 5931 5932 5933 5933 5934 5934 5935 5935 5935 5936 5936 5936 5937 5937 5937 5937 5937 5938 5938 5938 5938 5938 5938 5938 5938 5938 5938 5937 5937 5937 5936 5936 5935 5935 5934 5934 5933 5933 5932 5932 5931 5931 5930 5929 5929 5928 5927 5926 5926 5925 5924 5923 5922 5921
5915 5916 5917 5917 5917 5918 5919 5919 5920 5920 5920 5920 5920 5921 5921 5921 5922 5921 5920 5920 5920 5921 5921 5921 5922 5922 5922 5922 5923 5923 5924 5925 5925 5926 5926 5927 5927 5928 5929 5929 5930 5931 5931 5932 5932 5933 5934 5934 5935 5935 5936 5936 5936 5936 5937 5937 5937 5937 5937 5937 5938 5938 5938 5938 5938 5938 5938 5938 5938 5938 5937 5937 5937 5936 5936 5935 5935 5934 5934 5933 5932 5932 5931 5931 5930 5929 5929 5928 5927 5927 5926 5925 5924 5923 5922 5921 5920
5913 5915 5915 5916 5917 5918 5918 5919 5919 5920 5920 5920 5919 5920 5921 5921 5921 5921 5920 5920 5920 5920 5921 5921 5922 5922 5923 5923 5923 5923 5924 5925 5925 5926 5926 5927 5927 5928 5929 5929 5930 5931 5931 5932 5933 5934 5934 5935 5935 5936 5936 5936 5936 5937 5937 5937 5937 5937 5937 5937 5938 5938 5938 5938 5938 5938 5938 5938 5938 5938 5937 5937 5937 5936 5936 5935 5934 5934 5933 5933 5932 5931 5931 5930 5930 5929 5928 5927 5927 5926 5925 5924 5923 5922 5921 5920 5919
5913 5914 5914 5915 5916 5917 5918 5918 5918 5919 5919 5919 5919 5919 5920 5921 5920 5920 5920 5920 5920 5920 5921 5921 5922 5922 5923 5923 5923 5924 5924 5925 5925 5926 5926 5927 5927 5928 5929 5929 5930 5931 5931 5932 5933 5934 5934 5935 5935 5936 5936 5936 5936 5937 5937 5937 5937 5937 5937 5937 5938 5938 5938 5938 5938 5938 5938 5938 5938 5938 5937 5937 5937 5936 5935 5935 5934 5934 5933 5932 5932 5931 5930 5930 5929 5928 5927 5926 5926 5925 5924 5923 5922 5921 5920 5919 5918
5913 5914 5914 5914 5915 5916 5916 5917 5917 5918 5918 5918 5918 5919 5920 5920 5920 5919 5920 5920 5920 5920 5921 5921 5922 5922 5923 5923 5923 5924 5924 5924 5925 5926 5926 5927 5927 5928 5928 5929 5930 5930 5931 5932 5933 5933 5934 5935 5935 5936 5936 5936 5936 5936 5937 5937 5937 5937 5937 5937 5937 5937 5938 5938 5938 5938 5938 5938 5938 5937 5937 5937 5936 5936 5935 5934 5934 5933 5932 5932 5931 5931 5930 5929 5929 5928 5927 5926 5925 5924 5923 5922 5921 5920 5919 5918 5917
5912 5913 5914 5914 5914 5914 5915 5916 5916 5916 5917 5917 5918 5918 5919 5919 5919 5919 5919 5919 5920 5920 5920 5921 5922 5922 5923 5923 5924 5924 5924 5924 5925 5925 5926 5926 5927 5927 5928 5929 5929 5930 5930 5931 5932 5933 5933 5934 5935 5935 5936 5936 5936 5936 5936 5937 5937 5937 5937 5937 5937 5937 5937 5938 5938 5937 5937 5937 5937 5937 5937 5936 5936 5935 5934 5934 5933 5933 5932 5931 5931 5930 5929 5929 5928 5927 5926 5925 5924 5923 5922 5921 5920 5918 5917 5917 5916
5910 5911 5912 5913 5914 5913 5914 5915 5915 5915 5916 5917 5917 5917 5918 5918 5918 5918 5918 5919 5919 5920 5920 5920 5921 5922 5923 5924 5924 5924 5924 5924 5925 5925 5925 5926 5926 5927 5927 5928 5929 5929 5930 5931 5931 5932 5933 5933 5934 5934 5935 5935 5935 5935 5936 5936 5936 5937 5937 5937 5937 5937 5937 5937 5937 5937 5937 5937 5936 5936 5936 5935 5935 5934 5933 5933 5933 5932 5931 5931 5930 5929 5928 5927 5927 5926 5925 5924 5923 5922 5920 5919 5918 5917 5917 5916 5914
5907 5909 5910 5912 5913 5912 5912 5913 5913 5914 5915 5916 5916 5917 5917 5917 5918 5918 5917 5918 5919 5919 5919 5920 5921 5922 5923 5923 5924 5924 5925 5925 5925 5925 5925 5925 5926 5926 5927 5927 5928 5928 5929 5930 5930 5931 5932 5932 5933 5934 5934 5934 5935 5935 5935 5935 5936 5936 5936 5936 5936 5937 5936 5936 5936 5936 5936 5936 5936 5935 5935 5935 5934 5933 5933 5932 5932 5931 5930 5930 5929 5928 5927 5926 5925 5925 5924 5923 5922 5920 5919 5918 5917 5916 5915 5914 5913
5905 5907 5908 5910 5912 5911 5910 5910 5911 5912 5914 5915 5915 5916 5916 5916 5917 5917 5917 5917 5918 5918 5919 5919 5920 5921 5922 5923 5924 5924 5925 5925 5925 5925 5925 5925 5925 5925 5926 5926 5927 5927 5928 5929 5930 5930 5931 5931 5932 5933 5933 5934 5934 5934 5934 5934 5935 5935 5936 5936 5936 5936 5936 5936 5935 5935 5935 5935 5935 5934 5934 5933 5933 5932 5932 5931 5931 5930 5929 5928 5927 5926 5926 5925 5924 5923 5922 5921 5920 5919 5918 5917 5916 5915 5914 5913 5912
5902 5904 5905 5907 5909 5908 5908 5909 5910 5911 5912 5913 5914 5914 5914 5914 5915 5916 5916 5916 5917 5917 5918 5918 5919 5920 5921 5922 5923 5923 5924 5925 5925 5925 5925 5925 5925 5925 5925 5926 5926 5927 5927 5928 5928 5929 5929 5930 5931 5931 5932 5933 5933 5933 5934 5934 5934 5934 5935 5935 5935 5935 5935 5935 5934 5934 5934 5934 5933 5933 5932 5932 5931 5931 5930 5930 5929 5928 5927 5926 5926 5925 5924 5924 5923 5922 5921 5920 5919 5918 5917 5916 5915 5913 5912 5911 5910
5900 5902 5903 5906 5906 5906 5907 5908 5908 5909 5910 5911 5912 5912 5913 5913 5914 5914 5915 5915 5916 5916 5917 5917 5918 5919 5920 5921 5922 5923 5923 5924 5924 5925 5925 5925 5925 5925 5925 5925 5926 5926 5926 5927 5927 5928 5928 5929 5930 5930 5931 5932 5932 5933 5933 5933 5933 5933 5934 5934 5934 5934 5934 5934 5933 5933 5933 5932 5932 5931 5931 5930 5930 5929 5929 5928 5927 5926 5925 5924 5924 5923 5923 5922 5922 5921 5920 5919 5918 5917 5915 5914 5913 5912 5911 5910 5909
5898 5899 5902 5904 5904 5905 5906 5906 5906 5907 5907 5909 5910 5910 5912 5912 5913 5913 5913 5914 5914 5915 5916 5916 5917 5918 5919 5920 5921 5922 5922 5923 5923 5924 5924 5925 5925 5925 5925 5925 5925 5925 5926 5926 5927 5927 5928 5928 5929 5929 5930 5931 5931 5932 5932 5932 5932 5932 5932 5932 5932 5932 5932 5932 5932 5931 5931 5931 5930 5930 5929 5928 5928 5927 5927 5926 5925 5924 5923 5923 5922 5921 5921 5920 5920 5919 5918 5917 5916 5915 5914 5913 5911 5910 5909 5908 5907
5895 5898 5901 5901 5902 5904 5903 5903 5904 5905 5906 5908 5908 5909 5910 5910 5911 5912 5912 5912 5912 5913 5914 5915 5916 5917 5917 5918 5919 5920 5921 5921 5922 5922 5923 5924 5924 5925 5925 5925 5925 5925 5925 5926 5926 5926 5927 5927 5928 5928 5929 5929 5930 5930 5931 5931 5931 5931 5931 5931 5931 5931 5931 5930 5930 5930 5929 5929 5928 5927 5927 5926 5925 5925 5925 5924 5923 5922 5921 5921 5920 5919 5919 5918 5917 5916 5915 5915 5914 5913 5912 5911 5910 5908 5907 5906 5905
5894 5897 5898 5898 5900 5902 5901 5901 5902 5904 5905 5905 5905 5907 5907 5907 5908 5909 5910 5910 5910 5912 5913 5914 5915 5915 5916 5917 5918 5919 5919 5920 5920 5921 5922 5922 5923 5924 5924 5924 5924 5925 5925 5925 5925 5925 5926 5926 5927 5927 5927 5928 5928 5929 5929 5929 5929 5929 5929 5929 5929 5929 5929 5929 5928 5928 5927 5927 5926 5925 5924 5923 5923 5923 5922 5922 5921 5920 5920 5919 5918 5917 5917 5916 5915 5914 5913 5912 5912 5911 5910 5909 5908 5907 5906 5905 5904
5892 5893 5894 5896 5898 5899 5899 5899 5900 5902 5903 5901 5903 5904 5903 5904 5905 5906 5908 5909 5909 5911 5912 5912 5913 5913 5914 5915 5916 5917 5917 5918 5919 5919 5920 5921 5921 5922 5923 5923 5923 5924 5924 5923 5924 5924 5924 5925 5925 5926 5926 5926 5927 5927 5927 5928 5928 5928 5928 5928 5928 5927 5927 5927 5926 5926 5925 5924 5923 5922 5921 5921 5921 5921 5920 5920 5919 5919 5918 5917 5916 5916 5915 5914 5913 5912 5911 5910 5910 5909 5908 5907 5906 5905 5904 5903 5902
5888 5889 5892 5894 5895 5896 5897 5897 5899 5901 5899 5898 5901 5901 5901 5903 5904 5905 5905 5906 5908 5910 5911 5911 5911 5911 5912 5913 5913 5914 5915 5916 5916 5917 5918 5918 5919 5920 5921 5921 5921 5922 5922 5922 5922 5922 5923 5923 5924 5924 5925 5925 5925 5925 5926 5926 5926 5926 5926 5926 5926 5926 5925 5925 5924 5924 5923 5922 5921 5920 5920 5919 5919 5919 5918 5918 5918 5917 5916 5915 5915 5914 5913 5912 5911 5910 5909 5908 5908 5907 5906 5905 5905 5904 5903 5902 5901
5883 5885 5890 5891 5892 5893 5893 5894 5896 5897 5894 5894 5898 5898 5899 5901 5902 5903 5903 5905 5907 5908 5908 5909 5909 5910 5910 5911 5911 5912 5913 5913 5914 5915 5915 5916 5917 5918 5918 5919 5919 5919 5920 5920 5921 5921 5921 5922 5922 5923 5923 5923 5923 5924 5924 5924 5924 5924 5924 5924 5924 5924 5923 5923 5922 5922 5921 5920 5919 5918 5918 5917 5917 5917 5917 5917 5916 5915 5915 5914 5913 5912 5911 5910 5909 5909 5908 5907 5906 5905 5904 5904 5903 5902 5901 5900 5899
5878 5882 5885 5887 5888 5889 5889 5890 5891 5889 5888 5892 5896 5896 5896 5897 5900 5901 5901 5904 5905 5905 5906 5907 5908 5909 5909 5909 5909 5909 5910 5910 5911 5912 5913 5913 5914 5915 5916 5916 5916 5917 5918 5918 5918 5919 5919 5920 5921 5921 5921 5921 5922 5922 5922 5922 5922 5922 5922 5922 5922 5921 5921 5921 5920 5920 5919 5918 5917 5916 5916 5915 5915 5915 5915 5915 5914 5913 5913 5912 5911 5910 5909 5908 5908 5907 5906 5905 5904 5903 5902 5901 5901 5900 5899 5898 5896
5873 5877 5879 5881 5883 5884 5884 5885 5884 5883 5885 5891 5894 5893 5891 5893 5898 5899 5899 5902 5903 5904 5905 5906 5906 5907 5908 5908 5908 5907 5907 5907 5908 5909 5910 5911 5912 5912 5913 5913 5914 5914 5915 5916 5916 5917 5918 5918 5919 5919 5919 5919 5920 5920 5920 5920 5920 5920 5920 5920 5919 5919 5919 5919 5918 5917 5917 5916 5915 5914 5914 5913 5913 5913 5913 5913 5912 5911 5911 5910 5909 5908 5907 5906 5905 5905 5904 5903 5902 5901 5900 5899 5898 5897 5896 5895 5893
5868 5871 5873 5875 5877 5878 5879 5880 5881 5882 5885 5889 5889 5888 5887 5890 5896 5898 5898 5901 5901 5902 5903 5904 5905 5906 5906 5907 5907 5907 5906 5906 5906 5907 5907 5909 5909 5910 5910 5911 5911 5912 5912 5913 5914 5915 5916 5916 5917 5917 5917 5917 5918 5918 5918 5918 5918 5918 5918 5917 5917 5917 5916 5916 5916 5915 5914 5914 5913 5912 5912 5911 5911 5911 5910 5910 5909 5908 5908 5907 5906 5906 5905 5904 5903 5902 5901 5900 5899 5898 5897 5896 5895 5894 5893 5892 5891
5864 5868 5870 5872 5873 5874 5876 5877 5879 5881 5884 5886 5884 5882 5885 5888 5894 5897 5897 5898 5899 5900 5901 5902 5903 5904 5905 5905 5906 5907 5907 5906 5906 5906 5906 5907 5907 5908 5908 5909 5909 5910 5910 5911 5912 5913 5913 5914 5914 5915 5915 5915 5915 5915 5915 5915 5915 5915 5915 5915 5915 5914 5914 5914 5913 5913 5912 5912 5911 5911 5910 5909 5909 5908 5908 5907 5906 5905 5904 5904 5903 5903 5902 5901 5900 5899 5899 5898 5897 5895 5894 5893 5892 5891 5890 5889 5888
5862 5865 5865 5866 5870 5873 5874 5875 5879 5882 5883 5883 5878 5878 5883 5887 5890 5894 5895 5895 5896 5897 5899 5900 5901 5903 5903 5903 5905 5906 5907 5907 5906 5906 5906 5906 5906 5907 5907 5907 5908 5908 5909 5909 5910 5911 5911 5912 5912 5912 5912 5913 5913 5913 5913 5913 5912 5912 5913 5912 5912 5912 5911 5911 5911 5910 5910 5910 5909 5908 5908 5907 5906 5905 5905 5904 5903 5902 5901 5901 5901 5900 5899 5898 5897 5896 5895 5895 5894 5893 5892 5890 5889 5888 5888 5887 5885
5856 5858 5858 5863 5869 5871 5872 5874 5877 5878 5878 5878 5874 5874 5881 5884 5886 5891 5893 5892 5894 5895 5896 5898 5899 5900 5902 5902 5903 5905 5906 5906 5906 5905 5905 5905 5906 5906 5906 5906 5907 5907 5908 5908 5909 5909 5909 5909 5910 5910 5910 5910 5910 5910 5910 5910 5910 5910 5910 5910 5910 5909 5909 5909 5908 5908 5908 5907 5907 5906 5905 5904 5903 5903 5902 5901 5900 5899 5899 5898 5897 5897 5896 5895 5894 5893 5892 5892 5891 5891 5890 5888 5887 5886 5885 5884 5883
5850 5853 5856 5860 5863 5865 5868 5871 5871 5871 5871 5873 5873 5872 5876 5880 5882 5887 5890 5889 5891 5893 5894 5895 5897 5898 5900 5901 5902 5903 5904 5905 5904 5904 5904 5905 5905 5905 5905 5905 5905 5906 5906 5907 5907 5907 5907 5907 5907 5907 5908 5908 5908 5907 5907 5907 5907 5907 5907 5907 5907 5906 5906 5906 5906 5906 5905 5905 5904 5903 5902 5901 5901 5900 5899 5898 5898 5897 5896 5895 5894 5893 5893 5892 5891 5890 5890 5889 5888 5888 5887 5886 5884 5883 5882 5881 5880
5847 5850 5852 5854 5855 5858 5861 5862 5864 5866 5866 5868 5871 5870 5870 5874 5879 5883 5886 5887 5889 5891 5892 5893 5894 5896 5898 5899 5900 5901 5902 5903 5903 5903 5903 5904 5904 5905 5904 5904 5904 5905 5905 5905 5905 5905 5905 5905 5905 5905 5905 5905 5905 5905 5905 5905 5904 5904 5904 5904 5904 5904 5904 5904 5904 5903 5902 5902 5901 5901 5900 5899 5898 5898 5897 5896 5895 5894 5893 5892 5891 5890 5889 5889 5888 5887 5886 5886 5885 5884 5883 5882 5881 5880 5879 5878 5877
5840 5842 5845 5848 5849 5853 5855 5856 5858 5863 5863 5865 5868 5867 5865 5869 5876 5879 5882 5885 5886 5887 5889 5890 5891 5893 5895 5897 5898 5899 5900 5901 5901 5901 5901 5902 5903 5903 5903 5903 5903 5903 5903 5904 5904 5903 5903 5903 5903 5903 5903 5903 5903 5903 5902 5902 5901 5901 5901 5901 5901 5901 5902 5902 5902 5901 5901 5900 5900 5899 5898 5897 5896 5896 5895 5894 5893 5892 5891 5890 5889 5888 5886 5886 5885 5884 5883 5882 5882 5881 5880 5879 5878 5876 5875 5874 5874
5832 5834 5839 5842 5842 5847 5852 5852 5854 5858 5861 5862 5862 5862 5864 5867 5871 5875 5878 5881 5883 5884 5885 5887 5888 5890 5891 5893 5895 5896 5897 5898 5899 5899 5900 5900 5901 5901 5901 5901 5901 5901 5902 5902 5902 5902 5901 5901 5901 5901 5900 5900 5900 5900 5900 5899 5899 5899 5899 5899 5899 5900 5901 5901 5900 5900 5899 5899 5898 5897 5897 5895 5894 5893 5892 5891 5890 5889 5888 5886 5886 5885 5883 5882 5882 5880 5879 5878 5878 5877 5876 5875 5874 5872 5871 5870 5870
5827 5830 5834 5837 5838 5844 5846 5845 5848 5853 5855 5857 5857 5856 5862 5866 5866 5869 5875 5878 5880 5881 5882 5883 5885 5887 5888 5890 5892 5893 5895 5896 5897 5897 5897 5897 5898 5898 5899 5899 5899 5899 5900 5900 5900 5900 5899 5899 5899 5898 5898 5898 5898 5897 5897 5896 5896 5896 5897 5898 5899 5900 5900 5899 5898 5897 5896 5896 5895 5894 5893 5892 5891 5890 5889 5888 5887 5885 5884 5882 5881 5881 5880 5879 5878 5877 5876 5875 5874 5873 5873 5871 5870 5869 5867 5866 5866